Regional Weather Roundup
Issued by NWS

Home | Current Version | Previous Version | Text Only | Print | Product List | Glossary Off
Versions: 1 2 3 4 5 6 7 8 9 10 11 12 13 14 15 16 17 18 19 20 21 22 23 24 25 26 27 28 29 30 31 32 33 34 35 36 37 38 39 40 41 42 43 44 45 46 47 48 49 50

000
ASUS43 KIND 180309
RWRIN

WEATHER ROUNDUP FOR INDIANA
NATIONAL WEATHER SERVICE INDIANAPOLIS IN
1000 PM EST WED DEC 17 2014

NOTE: "FAIR" INDICATES FEW OR NO CLOUDS BELOW 12,000 FEET WITH NO
SIGNIFICANT WEATHER AND/OR OBSTRUCTIONS TO VISIBILITY.

* - STATION DOES NOT REPORT WEATHER SUCH AS PRECIPITATION OR FOG.

+ - STATION NOT QUALITY CONTROLLED BY THE NATIONAL WEATHER SERVICE.
    USE DATA WITH CAUTION...ESPECIALLY DEWPOINT AND RELATIVE
    HUMIDITY OBSERVATIONS.

INZ001>003-010>013-019-020-180400-
NORTHWEST INDIANA

CITY           SKY/WX    TMP DP  RH WIND       PRES   REMARKS
GARY /AIRPORT/ PTCLDY    26  17  70 W5        30.28S WCI  20
KNOX *+        CLOUDY    26  19  73 W8        30.25S WCI  18
LA PORTE +     CLOUDY    28  21  75 W5        30.26S WCI  23
MICHIGAN CITY+ CLOUDY    28  19  69 W7        30.26S WCI  21
MONTICELLO +   CLOUDY    26  20  76 W6        30.27S WCI  19
RENSSELAER +   CLOUDY    28  23  80 W6        30.28S WCI  22
VALPARAISO     CLOUDY    25  17  72 W8        30.26S WCI  16

$$

LMZ046-743>745-180400-
SOUTHERN LAKE MICHIGAN

STATION/POSITION TIME  TEMP WIND        PRES
                       AIR  DIR/SP/G
                 (UTC) (F)  (DEG/KT/KT) (MB)

$$

INZ004-005-014>016-021>024-180400-
NORTH CENTRAL INDIANA

CITY           SKY/WX    TMP DP  RH WIND       PRES   REMARKS
GOSHEN         CLOUDY    27  21  78 W14       30.22S WCI  16
LOGANSPORT +   CLOUDY    27  18  69 NW5       30.28S WCI  21
PERU/GRISSOM   CLOUDY    26  23  88 NW8       30.25S WCI  18
ROCHESTER +    CLOUDY    30  23  74 W8        30.26S WCI  23
SOUTH BEND     CLOUDY    29  20  69 W7        30.24S WCI  22
WARSAW +       CLOUDY    27  21  80 W10       30.24S WCI  17

$$

INZ006>009-017-018-025>027-180400-
NORTHEAST INDIANA

CITY           SKY/WX    TMP DP  RH WIND       PRES   REMARKS
ANGOLA *+      CLOUDY    27  19  74 NW8       30.19S WCI  18
AUBURN +       CLOUDY    28  21  74 W8        30.23S WCI  20
FORT WAYNE     CLOUDY    27  21  78 W13       30.24S WCI  16
HUNTINGTON +   CLOUDY    26  21  82 W7        30.24S WCI  18

$$

INZ028-029-035-036-043>045-051>053-180400-
WEST CENTRAL INDIANA

CITY           SKY/WX    TMP DP  RH WIND       PRES   REMARKS
GREENCASTLE +  CLOUDY    23  18  80 NW3       30.29S
LAFAYETTE      CLOUDY    25  19  78 NW6       30.29S WCI  18
TERRE HAUTE    CLOUDY    25  19  78 N7        30.31F WCI  17

$$

INZ030>032-037>040-046>048-054>057-064-065-180400-
CENTRAL INDIANA

CITY           SKY/WX    TMP DP  RH WIND       PRES   REMARKS
CP ATTERBURY + CLOUDY    27  21  80 MISG      30.30S
FRANKFORT +    CLOUDY    26  22  86 W6        30.28F WCI  19
GREENWOOD *+   CLOUDY    25  18  74 NW7       30.28  WCI  17
INDIANAPOLIS   FLURRIES  24  18  77 NW8       30.27F WCI  15
-EAGLE CREEK   CLOUDY    24  18  77 NW8       30.27F WCI  15
KOKOMO *+      CLOUDY    27  18  69 NW10      30.26F WCI  17
MARION +       CLOUDY    26  22  85 NW6       30.26S WCI  19
MT COMFORT *+  CLOUDY    25  18  74 NW8       30.28S WCI  16
SHELBYVILLE    CLOUDY    26  20  77 NW8       30.28S WCI  18
ZIONSVILLE +   CLOUDY    25  18  74 CALM      30.27F

$$

INZ033-034-041-042-049-050-058-059-180400-
EAST CENTRAL INDIANA

CITY           SKY/WX    TMP DP  RH WIND       PRES   REMARKS
MUNCIE         CLOUDY    25  20  81 W8        30.26S WCI  16

$$

INZ060-061-067>069-081>083-085>088-180400-
SOUTHWEST INDIANA

CITY           SKY/WX    TMP DP  RH WIND       PRES   REMARKS
EVANSVILLE     MOCLDY    31  25  78 N3        30.30F
HUNTINGBURG *+ PTCLDY    28  21  74 N3        30.30R
WASHINGTON +   CLOUDY    29  22  74 N8        30.29F WCI  21

$$

INZ062-063-066-070>080-084-089>092-180400-
SOUTH CENTRAL AND SOUTHEAST INDIANA

CITY           SKY/WX    TMP DP  RH WIND       PRES   REMARKS
BLOOMINGTON    CLOUDY    24  20  84 VRB3      30.28F

$$




USA.gov is the U.S. government's official web portal to all federal, state and local government web resources and services.